Overview Statistics Trail Chart Weather Telemetry Raw packets
 

This is the latest recevied weather packets stored in our database for station/object 4S6DRJ-13. If no packets are shown the sender has not sent any weather packets the latest 10 day(s).

<< 265 266 267 268 269 270 271 >>
Time Temp. Humidity Pressure Rain* Wind** Luminosity Snow
1788078560 30.56° C 70% 1008.1 hPa 0 mm 2.24 m/s, 289° 512 W/m² -
1788078499 30.56° C 69% 1008.2 hPa 0 mm 0.89 m/s, 355° 1112 W/m² -
1788078438 30.56° C 69% 1008.1 hPa 0 mm 1.34 m/s, 153° 1103 W/m² -
1788078376 30.56° C 68% 1008.1 hPa 0 mm 1.79 m/s, 215° 426 W/m² -
1788078316 31.11° C 67% 1008.3 hPa 0 mm 2.68 m/s, 266° 493 W/m² -
1788078255 31.11° C 68% 1008.2 hPa 0 mm 1.79 m/s, 240° 730 W/m² -
1788078194 31.11° C 67% 1008.2 hPa 0 mm 2.68 m/s, 233° 896 W/m² -
1788078133 31.11° C 66% 1008.2 hPa 0 mm 1.79 m/s, 237° 395 W/m² -
1788078072 31.67° C 66% 1008.3 hPa 0 mm 3.13 m/s, 216° 899 W/m² -
1788078011 31.67° C 66% 1008.3 hPa 0 mm 4.02 m/s, 242° 431 W/m² -
1788077950 31.67° C 66% 1008.1 hPa 0 mm 1.34 m/s, 284° 602 W/m² -
1788077889 31.67° C 67% 1008.2 hPa 0 mm 0.89 m/s, 229° 692 W/m² -
1788077828 31.67° C 67% 1008.3 hPa 0 mm 0.89 m/s, 172° 713 W/m² -
1788077767 31.67° C 66% 1008.4 hPa 0 mm 1.79 m/s, 53° 687 W/m² -
1788077706 31.67° C 67% 1008.4 hPa 0 mm 0.89 m/s, 280° 848 W/m² -
1788077645 31.67° C 67% 1008.5 hPa 0 mm 1.34 m/s, 281° 843 W/m² -
1788077584 31.67° C 67% 1008.2 hPa 0 mm 1.34 m/s, 252° 827 W/m² -
1788077523 31.67° C 67% 1008.4 hPa 0 mm 1.79 m/s, 216° 872 W/m² -
1788077462 31.67° C 66% 1008.6 hPa 0 mm 0.89 m/s, 305° 891 W/m² -
1788077401 31.67° C 65% 1008.4 hPa 0 mm 1.79 m/s, 202° 754 W/m² -
1788077340 31.67° C 66% 1008.5 hPa 0 mm 1.79 m/s, 60° 896 W/m² -
1788077279 31.67° C 66% 1008.4 hPa 0 mm 1.34 m/s, 176° 984 W/m² -
1788077218 31.11° C 67% 1008.4 hPa 0 mm 0.89 m/s, 141° 976 W/m² -
1788077158 31.11° C 66% 1008.4 hPa 0 mm 0.89 m/s, 223° 918 W/m² -
1788077096 31.11° C 66% 1008.4 hPa 0 mm 1.79 m/s, 261° 967 W/m² -

* Rain latest hour (hover to see other rain measurements)
** Current wind speed in m/s (hover to see current wind gust speed)